| time (UTC) | temp C | wind direction | speed KPH | gust KPH | rain 1hr cm | rain 24hr cm | rain mn cm | humidity % | barometer mb |
| 20260505183047 | 25 | 243 | 8.0 | 20.9 | 0.00 | 0.00 | 0.00 | 40 | 1014.4 |
| 20260505181531 | 25 | 233 | 3.2 | 14.5 | 0.00 | 0.00 | 0.00 | 41 | 1014.4 |
| 20260505180040 | 24 | 360 | 9.7 | 25.7 | 0.00 | 0.00 | 0.00 | 42 | 1014.9 |
| 20260505174543 | 24 | 297 | 9.7 | 17.7 | 0.00 | 0.00 | 0.00 | 43 | 1015.4 |
| 20260505173037 | 25 | 186 | 8.0 | 24.1 | 0.00 | 0.00 | 0.00 | 41 | 1015.5 |
| 20260505171539 | 24 | 360 | 12.9 | 24.1 | 0.00 | 0.00 | 0.00 | 41 | 1015.6 |
| 20260505170034 | 24 | 238 | 6.4 | 17.7 | 0.00 | 0.00 | 0.00 | 37 | 1015.3 |
| 20260505164536 | 23 | 248 | 9.7 | 25.7 | 0.00 | 0.00 | 0.00 | 45 | 1015.4 |
| 20260505163032 | 23 | 229 | 4.8 | 17.7 | 0.00 | 0.00 | 0.00 | 43 | 1015.6 |
| 20260505161531 | 23 | 244 | 11.3 | 19.3 | 0.00 | 0.00 | 0.00 | 49 | 1015.8 |
| 20260505153033 | 22 | 360 | 3.2 | 12.9 | 0.00 | 0.00 | 0.00 | 59 | 1016.1 |
| 20260505151532 | 21 | 294 | 3.2 | 12.9 | 0.00 | 0.00 | 0.00 | 62 | 1016.2 |
| 20260505124536 | 12 | 0 | 0.0 | 0.0 | 0.00 | 0.00 | 0.00 | 95 | 1015.6 |
| 20260505123049 | 10 | 0 | 0.0 | 0.0 | 0.00 | 0.00 | 0.00 | 96 | 1015.4 |
| 20260505121535 | 9 | 0 | 0.0 | 0.0 | 0.00 | 0.00 | 0.00 | 96 | 1015.3 |
| 20260505120041 | 8 | 0 | 0.0 | 0.0 | 0.00 | 0.00 | 0.00 | 96 | 1015.5 |
| 20260505114545 | 8 | 0 | 0.0 | 0.0 | 0.00 | 0.00 | 0.00 | 96 | 1015.1 |
| 20260505113032 | 7 | 0 | 0.0 | 0.0 | 0.00 | 0.00 | 0.00 | 95 | 1015.2 |
| 20260505111532 | 7 | 0 | 0.0 | 0.0 | 0.00 | 0.00 | 0.00 | 95 | 1015.3 |
| 20260505101530 | 7 | 0 | 0.0 | 0.0 | 0.00 | 0.00 | 0.00 | 95 | 1015.0 |
| 20260505100034 | 7 | 0 | 0.0 | 0.0 | 0.00 | 0.00 | 0.00 | 95 | 1014.7 |
| 20260505094530 | 8 | 0 | 0.0 | 0.0 | 0.00 | 0.00 | 0.00 | 95 | 1014.8 |
| 20260505093040 | 8 | 0 | 0.0 | 0.0 | 0.00 | 0.00 | 0.00 | 94 | 1014.8 |
| 20260505091540 | 8 | 0 | 0.0 | 0.0 | 0.00 | 0.00 | 0.00 | 94 | 1014.6 |
| 20260505090044 | 8 | 0 | 0.0 | 0.0 | 0.00 | 0.00 | 0.00 | 94 | 1014.6 |
| 20260505084530 | 8 | 0 | 0.0 | 0.0 | 0.00 | 0.00 | 0.00 | 94 | 1014.5 |
| 20260505083030 | 8 | 0 | 0.0 | 0.0 | 0.00 | 0.00 | 0.00 | 94 | 1014.5 |
| 20260505081537 | 8 | 0 | 0.0 | 0.0 | 0.00 | 0.00 | 0.00 | 93 | 1014.4 |
| 20260505080046 | 8 | 0 | 0.0 | 0.0 | 0.00 | 0.00 | 0.00 | 93 | 1014.4 |
| 20260505074532 | 8 | 0 | 0.0 | 0.0 | 0.00 | 0.00 | 0.00 | 93 | 1014.2 |
| 20260505073045 | 8 | 0 | 0.0 | 0.0 | 0.00 | 0.00 | 0.00 | 92 | 1014.2 |
| 20260505071532 | 8 | 0 | 0.0 | 0.0 | 0.00 | 0.00 | 0.00 | 92 | 1014.3 |
| 20260505070032 | 8 | 0 | 0.0 | 1.6 | 0.00 | 0.00 | 0.00 | 92 | 1014.3 |
| 20260505064532 | 9 | 0 | 0.0 | 3.2 | 0.00 | 0.00 | 0.00 | 91 | 1014.3 |
| 20260505063033 | 9 | 0 | 0.0 | 0.0 | 0.00 | 0.00 | 0.00 | 91 | 1014.2 |
| 20260505061530 | 10 | 0 | 0.0 | 0.0 | 0.00 | 0.00 | 0.00 | 90 | 1014.2 |
| 20260505060034 | 10 | 0 | 0.0 | 0.0 | 0.00 | 0.00 | 0.00 | 90 | 1014.1 |
| 20260505054532 | 10 | 0 | 0.0 | 0.0 | 0.00 | 0.00 | 0.00 | 89 | 1014.1 |
| 20260505053032 | 10 | 0 | 0.0 | 0.0 | 0.00 | 0.00 | 0.00 | 88 | 1014.1 |
| 20260505051536 | 10 | 0 | 0.0 | 0.0 | 0.00 | 0.00 | 0.00 | 88 | 1014.3 |
| 20260505050104 | 10 | 0 | 0.0 | 0.0 | 0.00 | 0.00 | 0.00 | 88 | 1014.4 |
| 20260505041547 | 11 | 0 | 0.0 | 0.0 | 0.00 | 0.00 | 0.00 | 85 | 1014.4 |
| 20260505040037 | 11 | 0 | 0.0 | 0.0 | 0.00 | 0.00 | 0.00 | 85 | 1014.3 |
| 20260505034532 | 11 | 0 | 0.0 | 0.0 | 0.00 | 0.00 | 0.00 | 84 | 1014.6 |
| 20260505033032 | 12 | 0 | 0.0 | 0.0 | 0.00 | 0.00 | 0.00 | 84 | 1014.4 |
| 20260505031536 | 12 | 0 | 0.0 | 0.0 | 0.00 | 0.00 | 0.00 | 83 | 1014.5 |
| 20260505030035 | 12 | 0 | 0.0 | 0.0 | 0.00 | 0.00 | 0.00 | 82 | 1014.5 |
| 20260505024530 | 13 | 0 | 0.0 | 0.0 | 0.00 | 0.00 | 0.00 | 81 | 1014.6 |
| 20260505023039 | 13 | 0 | 0.0 | 0.0 | 0.00 | 0.00 | 0.00 | 80 | 1014.4 |
| 20260505021534 | 13 | 0 | 0.0 | 0.0 | 0.00 | 0.00 | 0.00 | 78 | 1014.3 |
| 20260505020034 | 13 | 0 | 0.0 | 0.0 | 0.00 | 0.00 | 0.00 | 77 | 1014.2 |
| 20260505014538 | 14 | 0 | 0.0 | 0.0 | 0.00 | 0.00 | 0.00 | 76 | 1014.1 |
| 20260505013034 | 15 | 0 | 0.0 | 0.0 | 0.00 | 0.00 | 0.00 | 74 | 1013.9 |
| 20260505011532 | 15 | 0 | 0.0 | 0.0 | 0.00 | 0.00 | 0.00 | 73 | 1013.8 |
| 20260505010033 | 16 | 0 | 0.0 | 0.0 | 0.00 | 0.00 | 0.00 | 71 | 1013.7 |
| 20260505004537 | 16 | 0 | 0.0 | 0.0 | 0.00 | 0.00 | 0.00 | 70 | 1013.6 |
| 20260505003030 | 17 | 0 | 0.0 | 0.0 | 0.00 | 0.00 | 0.00 | 65 | 1013.6 |
| 20260505001530 | 18 | 0 | 0.0 | 0.0 | 0.00 | 0.00 | 0.00 | 64 | 1013.6 |
| 20260505000039 | 19 | 0 | 0.0 | 0.0 | 0.00 | 0.00 | 0.00 | 62 | 1013.6 |
| 20260504234536 | 20 | 0 | 0.0 | 1.6 | 0.00 | 0.00 | 0.00 | 60 | 1013.3 |
| 20260504233032 | 21 | 0 | 0.0 | 3.2 | 0.00 | 0.00 | 0.00 | 54 | 1013.1 |
| 20260504231530 | 23 | 198 | 0.0 | 8.0 | 0.00 | 0.00 | 0.00 | 48 | 1013.2 |
| 20260504230030 | 24 | 207 | 4.8 | 12.9 | 0.00 | 0.00 | 0.00 | 37 | 1013.1 |
| 20260504224530 | 24 | 182 | 3.2 | 14.5 | 0.00 | 0.00 | 0.00 | 39 | 1013.1 |
| 20260504223034 | 25 | 261 | 4.8 | 11.3 | 0.00 | 0.00 | 0.00 | 38 | 1013.3 |
| 20260504221535 | 24 | 360 | 3.2 | 14.5 | 0.00 | 0.00 | 0.00 | 41 | 1013.2 |
| 20260504220030 | 24 | 221 | 3.2 | 11.3 | 0.00 | 0.00 | 0.00 | 36 | 1013.3 |
| 20260504214531 | 24 | 221 | 4.8 | 12.9 | 0.00 | 0.00 | 0.00 | 36 | 1013.2 |
| 20260504213052 | 25 | 227 | 3.2 | 8.0 | 0.00 | 0.00 | 0.00 | 34 | 1013.2 |
| 20260504211530 | 24 | 229 | 4.8 | 16.1 | 0.00 | 0.00 | 0.00 | 33 | 1013.3 |
| 20260504210032 | 25 | 248 | 6.4 | 17.7 | 0.00 | 0.00 | 0.00 | 32 | 1013.2 |
| 20260504204531 | 25 | 216 | 3.2 | 12.9 | 0.00 | 0.00 | 0.00 | 34 | 1013.2 |
| 20260504203035 | 24 | 266 | 6.4 | 19.3 | 0.00 | 0.00 | 0.00 | 32 | 1013.4 |
| 20260504201534 | 25 | 288 | 6.4 | 19.3 | 0.00 | 0.00 | 0.00 | 31 | 1013.3 |
| 20260504200030 | 25 | 229 | 4.8 | 12.9 | 0.00 | 0.00 | 0.00 | 33 | 1013.4 |
| 20260504194534 | 25 | 251 | 4.8 | 14.5 | 0.00 | 0.00 | 0.00 | 31 | 1013.6 |
| 20260504193040 | 25 | 259 | 8.0 | 14.5 | 0.00 | 0.00 | 0.00 | 32 | 1013.7 |
| 20260504191532 | 25 | 167 | 1.6 | 14.5 | 0.00 | 0.00 | 0.00 | 32 | 1013.9 |
| 20260504190031 | 24 | 217 | 9.7 | 17.7 | 0.00 | 0.00 | 0.00 | 34 | 1014.3 |
| 20260504184533 | 24 | 360 | 4.8 | 9.7 | 0.00 | 0.00 | 0.00 | 34 | 1014.6 |